• In Uzbekistan
  • List of Countries
  • For 7 days
  • Water Temperature
  • Satellite Maps
  • Weather Map
  • Weather Widgets
  • user-avatar
    Login

    Hourly Weather Juigalpa

    Today, 13 December, Thursday

    Time Temperature Precipitation Wind Pressure Humidity
    00:00 +24°C° 0 mm 3 mps 753 mmHg 92%
    01:00 +24°C° 0 mm 3 mps 753 mmHg 93%
    02:00 +24°C° 0 mm 3 mps 753 mmHg 93%
    03:00 +24°C° 0 mm 3 mps 752 mmHg 94%
    04:00 +24°C° 0 mm 3 mps 752 mmHg 94%
    05:00 +24°C° 0 mm 3 mps 753 mmHg 94%
    06:00 +24°C° 0 mm 3 mps 753 mmHg 94%
    07:00 +25°C° 0.1 mm 3 mps 753 mmHg 89%
    08:00 +26°C° 0.1 mm 4 mps 753 mmHg 84%
    09:00 +28°C° 0.1 mm 5 mps 754 mmHg 79%
    10:00 +29°C° 0.1 mm 5 mps 753 mmHg 75%
    11:00 +29°C° 0.1 mm 5 mps 753 mmHg 71%
    12:00 +30°C° 0.1 mm 5 mps 752 mmHg 66%
    13:00 +32°C° 0 mm 5 mps 752 mmHg 66%
    14:00 +32°C° 0 mm 5 mps 751 mmHg 65%
    15:00 +32°C° 0 mm 4 mps 751 mmHg 64%
    16:00 +29°C° 0 mm 4 mps 751 mmHg 70%
    17:00 +28°C° 0 mm 3 mps 751 mmHg 75%
    18:00 +26°C° 0 mm 2 mps 751 mmHg 81%
    19:00 +26°C° 0 mm 2 mps 752 mmHg 83%
    20:00 +25°C° 0 mm 3 mps 752 mmHg 84%
    21:00 +24°C° 0 mm 3 mps 753 mmHg 86%
    22:00 +24°C° 0 mm 2 mps 753 mmHg 87%
    23:00 +24°C° 0 mm 2 mps 753 mmHg 88%

    Tomorrow, 14 December, Friday

    Time Temperature Precipitation Wind Pressure Humidity
    00:00 +23°C° 0 mm 2 mps 753 mmHg 89%
    01:00 +23°C° 0 mm 2 mps 752 mmHg 90%
    02:00 +23°C° 0 mm 2 mps 752 mmHg 91%
    03:00 +23°C° 0 mm 2 mps 752 mmHg 91%
    04:00 +21°C° 0 mm 2 mps 752 mmHg 92%
    05:00 +21°C° 0 mm 2 mps 752 mmHg 92%
    06:00 +21°C° 0 mm 2 mps 753 mmHg 92%
    07:00 +24°C° 0 mm 2 mps 753 mmHg 86%
    08:00 +26°C° 0 mm 3 mps 753 mmHg 79%
    09:00 +28°C° 0 mm 3 mps 754 mmHg 73%
    10:00 +29°C° 0 mm 3 mps 753 mmHg 71%
    11:00 +30°C° 0 mm 4 mps 753 mmHg 69%
    12:00 +32°C° 0 mm 4 mps 752 mmHg 66%
    13:00 +32°C° 0 mm 4 mps 751 mmHg 67%
    14:00 +32°C° 0 mm 4 mps 751 mmHg 67%
    15:00 +31°C° 0 mm 3 mps 750 mmHg 67%
    16:00 +30°C° 0.1 mm 3 mps 750 mmHg 74%
    17:00 +29°C° 0.1 mm 3 mps 750 mmHg 80%
    18:00 +27°C° 0.1 mm 3 mps 751 mmHg 87%
    19:00 +27°C° 0.1 mm 3 mps 751 mmHg 88%
    20:00 +26°C° 0.1 mm 3 mps 752 mmHg 89%
    21:00 +26°C° 0.1 mm 3 mps 753 mmHg 91%
    22:00 +26°C° 0.1 mm 3 mps 753 mmHg 91%
    23:00 +25°C° 0.1 mm 3 mps 753 mmHg 92%

    Day after tomorrow, 15 December, Saturday

    Time Temperature Precipitation Wind Pressure Humidity
    00:00 +25°C° 0.1 mm 2 mps 753 mmHg 92%
    01:00 +25°C° 0.1 mm 3 mps 753 mmHg 93%
    02:00 +25°C° 0.1 mm 3 mps 752 mmHg 93%
    03:00 +24°C° 0.1 mm 3 mps 752 mmHg 93%
    04:00 +24°C° 0 mm 3 mps 752 mmHg 93%
    05:00 +24°C° 0 mm 3 mps 752 mmHg 93%
    06:00 +24°C° 0 mm 3 mps 753 mmHg 93%
    07:00 +26°C° 0 mm 4 mps 753 mmHg 86%
    08:00 +28°C° 0 mm 5 mps 754 mmHg 80%
    09:00 +29°C° 0 mm 6 mps 754 mmHg 73%
    10:00 +30°C° 0.1 mm 6 mps 754 mmHg 70%
    11:00 +32°C° 0.1 mm 7 mps 753 mmHg 66%
    12:00 +33°C° 0.1 mm 7 mps 752 mmHg 63%
    13:00 +33°C° 0.1 mm 7 mps 752 mmHg 64%
    14:00 +32°C° 0.1 mm 7 mps 751 mmHg 65%
    15:00 +32°C° 0.1 mm 7 mps 750 mmHg 65%
    16:00 +30°C° 0.1 mm 6 mps 751 mmHg 70%
    17:00 +28°C° 0.1 mm 6 mps 751 mmHg 74%
    18:00 +27°C° 0.1 mm 5 mps 752 mmHg 79%
    19:00 +27°C° 0 mm 6 mps 753 mmHg 80%
    20:00 +26°C° 0 mm 6 mps 753 mmHg 82%
    21:00 +26°C° 0 mm 6 mps 754 mmHg 84%
    22:00 +26°C° 0 mm 6 mps 754 mmHg 84%
    23:00 +26°C° 0 mm 6 mps 754 mmHg 84%

    16 December, Sunday

    Time Temperature Precipitation Wind Pressure Humidity
    00:00 +24°C° 0 mm 6 mps 754 mmHg 84%
    01:00 +24°C° 0 mm 6 mps 753 mmHg 85%
    02:00 +24°C° 0 mm 6 mps 753 mmHg 85%
    03:00 +24°C° 0 mm 6 mps 753 mmHg 86%
    04:00 +24°C° 0 mm 6 mps 753 mmHg 85%
    05:00 +23°C° 0 mm 6 mps 753 mmHg 85%
    06:00 +23°C° 0 mm 6 mps 754 mmHg 85%
    07:00 +26°C° 0 mm 7 mps 754 mmHg 80%
    08:00 +27°C° 0 mm 7 mps 755 mmHg 75%
    09:00 +29°C° 0 mm 8 mps 755 mmHg 69%
    10:00 +31°C° 0 mm 8 mps 754 mmHg 67%
    11:00 +32°C° 0 mm 8 mps 754 mmHg 64%
    12:00 +32°C° 0 mm 7 mps 753 mmHg 62%
    13:00 +32°C° 0.1 mm 7 mps 752 mmHg 63%
    14:00 +32°C° 0.1 mm 7 mps 752 mmHg 64%
    15:00 +32°C° 0.1 mm 7 mps 751 mmHg 65%
    16:00 +30°C° 0.1 mm 7 mps 751 mmHg 69%
    17:00 +28°C° 0.1 mm 6 mps 752 mmHg 73%
    18:00 +27°C° 0.1 mm 5 mps 752 mmHg 77%
    19:00 +27°C° 0 mm 5 mps 753 mmHg 79%
    20:00 +26°C° 0 mm 6 mps 754 mmHg 81%
    21:00 +26°C° 0 mm 6 mps 754 mmHg 83%
    22:00 +26°C° 0 mm 6 mps 754 mmHg 83%
    23:00 +24°C° 0 mm 6 mps 754 mmHg 84%

    17 December, Monday

    Time Temperature Precipitation Wind Pressure Humidity
    00:00 +24°C° 0 mm 6 mps 753 mmHg 85%
    01:00 +25°C° 0 mm 5 mps 753 mmHg 85%
    02:00 +25°C° 0 mm 5 mps 753 mmHg 85%
    03:00 +23°C° 0 mm 5 mps 752 mmHg 85%
    04:00 +23°C° 0 mm 5 mps 753 mmHg 85%
    05:00 +23°C° 0 mm 5 mps 753 mmHg 85%
    06:00 +23°C° 0 mm 5 mps 753 mmHg 85%
    07:00 +24°C° 0 mm 6 mps 754 mmHg 81%
    08:00 +27°C° 0 mm 7 mps 754 mmHg 76%
    09:00 +28°C° 0 mm 8 mps 755 mmHg 72%
    10:00 +29°C° 0 mm 7 mps 754 mmHg 68%
    11:00 +30°C° 0 mm 7 mps 753 mmHg 64%
    12:00 +32°C° 0 mm 7 mps 752 mmHg 60%
    13:00 +32°C° 0.1 mm 7 mps 752 mmHg 62%
    14:00 +32°C° 0.1 mm 7 mps 751 mmHg 64%
    15:00 +32°C° 0.1 mm 7 mps 750 mmHg 66%
    16:00 +29°C° 0.1 mm 6 mps 751 mmHg 71%
    17:00 +28°C° 0.1 mm 6 mps 752 mmHg 75%
    18:00 +26°C° 0.1 mm 6 mps 752 mmHg 80%
    19:00 +26°C° 0 mm 5 mps 753 mmHg 83%
    20:00 +25°C° 0 mm 5 mps 753 mmHg 86%
    21:00 +25°C° 0 mm 4 mps 754 mmHg 89%
    22:00 +23°C° 0 mm 4 mps 753 mmHg 90%
    23:00 +23°C° 0 mm 4 mps 753 mmHg 90%

    18 December, Tuesday

    Time Temperature Precipitation Wind Pressure Humidity
    00:00 +23°C° 0 mm 4 mps 753 mmHg 90%
    01:00 +23°C° 0 mm 4 mps 752 mmHg 90%
    02:00 +23°C° 0 mm 4 mps 752 mmHg 90%
    03:00 +23°C° 0 mm 5 mps 752 mmHg 90%
    04:00 +23°C° 0 mm 5 mps 752 mmHg 89%
    05:00 +22°C° 0 mm 5 mps 752 mmHg 89%
    06:00 +22°C° 0 mm 5 mps 753 mmHg 89%
    07:00 +25°C° 0 mm 5 mps 753 mmHg 83%
    08:00 +26°C° 0 mm 6 mps 753 mmHg 77%
    09:00 +28°C° 0 mm 7 mps 754 mmHg 71%
    10:00 +29°C° 0 mm 7 mps 753 mmHg 69%
    11:00 +30°C° 0 mm 7 mps 752 mmHg 67%
    12:00 +32°C° 0 mm 7 mps 751 mmHg 64%
    13:00 +32°C° 0 mm 7 mps 751 mmHg 64%
    14:00 +32°C° 0 mm 6 mps 750 mmHg 63%
    15:00 +32°C° 0 mm 6 mps 750 mmHg 63%
    16:00 +30°C° 0 mm 5 mps 750 mmHg 69%
    17:00 +28°C° 0 mm 5 mps 751 mmHg 74%
    18:00 +27°C° 0 mm 4 mps 751 mmHg 80%
    19:00 +26°C° 0 mm 4 mps 752 mmHg 82%
    20:00 +26°C° 0 mm 4 mps 752 mmHg 84%
    21:00 +25°C° 0 mm 4 mps 753 mmHg 86%
    22:00 +25°C° 0 mm 4 mps 753 mmHg 88%
    23:00 +23°C° 0 mm 4 mps 752 mmHg 89%
    Show more